Location: Ahausen
(50.4985°N, 8.2722°E)
Time: 10:33:15
(UTC+00:00)

Cosmos 1125 Rocket - Pass Details

Date: 18 September 2020
Orbit: 758 x 780 km, 74.0° (Epoch: 25 October)

Event Time Altitude Azimuth Distance (km) Brightness Sun altitude
Rises 20:39:23 0° 220° (SW) 3,249 6.7 -27.7°
Reaches altitude 10° 20:41:50 10° 226° (SW) 2,328 6.0 -28.0°
Maximum altitude 20:46:57 49° 301° (WNW) 1,010 4.4 -28.6°
Drops below altitude 10° 20:52:07 10° 16° (NNE) 2,345 6.3 -29.2°
Sets 20:54:36 0° 22° (NNE) 3,276 7.1 -29.4°
